Regional Weather Roundup
Issued by NWS

Home | Current Version | Previous Version | Graphics & Text | Print | Product List | Glossary On
Versions: 1 2 3 4 5 6 7 8 9 10 11 12 13 14 15 16 17 18 19 20 21 22 23 24 25 26 27 28 29 30 31 32 33 34 35 36 37 38 39 40 41 42 43 44 45 46 47 48 49 50
000
ASUS43 KOAX 042102
RWRNE

WEATHER ROUNDUP FOR NEBRASKA
NATIONAL WEATHER SERVICE OMAHA NE
300 PM CST SUN DEC 04 2016

NOTES: SATELLITE DATA IS BEING USED TO AUGMENT CLOUD COVER ABOVE
       12000 FEET.
       "FAIR" INDICATES FEW OR NO CLOUDS BELOW 12,000 FEET WITH NO
       SIGNIFICANT WEATHER AND/OR OBSTRUCTIONS TO VISIBILITY.

  * THESE STATIONS DO NOT REPORT WEATHER SUCH AS RAIN...SNOW OR FOG.

NEZ001>004-019>022-054>056-042200-
NEBRASKA PANHANDLE

CITY           SKY/WX    TMP DP  RH WIND       PRES   REMARKS
SCOTTSBLUFF    SUNNY     50  16  25 W20G26    29.79F
ALLIANCE       SUNNY     48  14  25 W18       29.77F
CHADRON        SUNNY     49  15  25 W10       29.75F
KIMBALL        SUNNY     48  14  25 SW16G22   29.81F
SIDNEY         SUNNY     48   8  19 SW14      29.83F
$$

NEZ057>060-069>072-079>082-042200-
SOUTHWEST NEBRASKA

CITY           SKY/WX    TMP DP  RH WIND       PRES   REMARKS
NORTH PLATTE   SUNNY     50  16  25 W16       29.87F
IMPERIAL       SUNNY     51   8  17 SW12G21   29.87F
LEXINGTON      SUNNY     51  17  25 W12       29.87F
MCCOOK         SUNNY     52  13  21 W17       29.89F
OGALLALA       SUNNY     52  10  18 SW17      29.85F
$$

NEZ005>010-023>029-035>040-094-042200-
NORTH CENTRAL NEBRASKA

CITY           SKY/WX    TMP DP  RH WIND       PRES   REMARKS
VALENTINE      SUNNY     49  14  24 SW14      29.80F
AINSWORTH      SUNNY     49  19  30 W14       29.81F
BROKEN BOW     SUNNY     50  19  29 W12       29.85F
O`NEILL        SUNNY     50  23  34 W8        29.84S
ORD            SUNNY     52  16  24 W14       29.84F
THEDFORD       SUNNY     49  16  26 W12G21    29.83F
$$

NEZ041-046>049-061>064-073>077-083>087-042200-
SOUTH CENTRAL NEBRASKA

CITY           SKY/WX    TMP DP  RH WIND       PRES   REMARKS
GRAND ISLAND   SUNNY     51  26  37 W12       29.88F
AURORA         SUNNY     49  32  50 W9        29.89S
HASTINGS       SUNNY     48  33  56 W8        29.91F
HOLDREGE       SUNNY     51  19  28 W10       29.89F
KEARNEY *      SUNNY     52  25  35 SW9       29.88F
YORK           SUNNY     46  37  71 SW9       29.89F
$$

NEZ011>018-030>034-042>045-042200-
NORTHEAST NEBRASKA

CITY           SKY/WX    TMP DP  RH WIND       PRES   REMARKS
NORFOLK        SUNNY     50  26  39 W9        29.84F
ALBION         SUNNY     50  24  36 SW14      29.86S
BLAIR          SUNNY     37  33  85 S9        29.88F WCI  31
FREMONT        SUNNY     41  35  78 S6        29.89S
TEKAMAH        SUNNY     43  35  73 SW12      29.88F
WAYNE          SUNNY     50  30  45 W8        29.84S
$$

NEZ050>053-065>068-078-088>093-042200-
SOUTHEAST NEBRASKA

CITY           SKY/WX    TMP DP  RH WIND       PRES   REMARKS
LINCOLN        SUNNY     36  32  85 SW7       29.93F WCI  30
OMAHA EPPLEY   SUNNY     42  33  70 SW7       29.90F
BEATRICE       SUNNY     40  35  81 W6        29.93S
FALLS CITY     SUNNY     42  36  79 SW7       29.94F
NEBRASKA CITY  SUNNY     40  34  77 W9        29.92F WCI  34
PLATTSMOUTH    SUNNY     39  32  75 SW7       29.91S WCI  34
$$

NEZ044-045-051>053-067-042200-
OMAHA AREA

CITY           SKY/WX    TMP DP  RH WIND       PRES   REMARKS
OMAHA EPPLEY   SUNNY     42  33  70 SW7       29.90F
BLAIR          SUNNY     37  33  85 S9        29.88F WCI  31
FREMONT        SUNNY     41  35  78 S6        29.89S
MILLARD        SUNNY     38  32  79 W6        29.91F WCI  33
OFFUTT AFB     SUNNY     40  35  83 W8        29.91S WCI  34
PLATTSMOUTH    SUNNY     39  32  75 SW7       29.91S WCI  34
WAHOO          FAIR      38  32  77 SW9       29.90F WCI  32
$$



USA.gov is the U.S. government's official web portal to all federal, state and local government web resources and services.